• In Uzbekistan
  • List of Countries
  • For 7 days
  • Water Temperature
  • Satellite Maps
  • Weather Map
  • Weather Widgets
  • user-avatar
    Login

    Hourly Weather Cabreuva

    Today, 24 February, Saturday

    Time Temperature Precipitation Wind Pressure Humidity
    00:00 +20°C° 0 mm 4 mps 704 mmHg 82%
    01:00 +20°C° 0 mm 4 mps 704 mmHg 83%
    02:00 +19°C° 0 mm 4 mps 703 mmHg 84%
    03:00 +19°C° 0 mm 3 mps 703 mmHg 84%
    04:00 +19°C° 0 mm 3 mps 703 mmHg 85%
    05:00 +19°C° 0 mm 3 mps 703 mmHg 86%
    06:00 +18°C° 0 mm 3 mps 703 mmHg 86%
    07:00 +20°C° 0 mm 3 mps 704 mmHg 81%
    08:00 +22°C° 0 mm 3 mps 704 mmHg 75%
    09:00 +23°C° 0 mm 4 mps 705 mmHg 70%
    10:00 +26°C° 0 mm 3 mps 705 mmHg 66%
    11:00 +27°C° 0 mm 3 mps 705 mmHg 61%
    12:00 +29°C° 0 mm 3 mps 705 mmHg 57%
    13:00 +29°C° 0 mm 3 mps 705 mmHg 57%
    14:00 +29°C° 0 mm 4 mps 704 mmHg 57%
    15:00 +29°C° 0 mm 4 mps 704 mmHg 57%
    16:00 +27°C° 0 mm 4 mps 704 mmHg 62%
    17:00 +26°C° 0 mm 4 mps 704 mmHg 67%
    18:00 +25°C° 0 mm 4 mps 703 mmHg 72%
    19:00 +23°C° 0 mm 4 mps 704 mmHg 75%
    20:00 +22°C° 0 mm 4 mps 704 mmHg 78%
    21:00 +21°C° 0 mm 4 mps 704 mmHg 81%
    22:00 +20°C° 0 mm 4 mps 705 mmHg 81%
    23:00 +20°C° 0 mm 4 mps 705 mmHg 82%

    Tomorrow, 25 February, Sunday

    Time Temperature Precipitation Wind Pressure Humidity
    00:00 +20°C° 0 mm 4 mps 705 mmHg 83%
    01:00 +20°C° 0 mm 3 mps 704 mmHg 83%
    02:00 +19°C° 0 mm 3 mps 704 mmHg 84%
    03:00 +19°C° 0 mm 3 mps 703 mmHg 85%
    04:00 +19°C° 0 mm 3 mps 703 mmHg 85%
    05:00 +19°C° 0 mm 3 mps 704 mmHg 85%
    06:00 +19°C° 0 mm 3 mps 704 mmHg 86%
    07:00 +20°C° 0 mm 3 mps 704 mmHg 81%
    08:00 +22°C° 0 mm 3 mps 705 mmHg 77%
    09:00 +24°C° 0 mm 3 mps 705 mmHg 72%
    10:00 +25°C° 0 mm 3 mps 705 mmHg 69%
    11:00 +26°C° 0 mm 3 mps 705 mmHg 67%
    12:00 +27°C° 0 mm 2 mps 705 mmHg 64%
    13:00 +27°C° 0.3 mm 3 mps 705 mmHg 63%
    14:00 +28°C° 0.3 mm 3 mps 704 mmHg 62%
    15:00 +28°C° 0.3 mm 4 mps 704 mmHg 61%
    16:00 +27°C° 0.2 mm 4 mps 703 mmHg 65%
    17:00 +26°C° 0.2 mm 4 mps 703 mmHg 69%
    18:00 +25°C° 0.2 mm 4 mps 703 mmHg 73%
    19:00 +23°C° 0 mm 4 mps 703 mmHg 76%
    20:00 +22°C° 0 mm 4 mps 704 mmHg 79%
    21:00 +21°C° 0 mm 4 mps 704 mmHg 83%
    22:00 +21°C° 0 mm 4 mps 704 mmHg 83%
    23:00 +21°C° 0 mm 4 mps 704 mmHg 84%

    Day after tomorrow, 26 February, Monday

    Time Temperature Precipitation Wind Pressure Humidity
    00:00 +21°C° 0 mm 4 mps 704 mmHg 84%
    01:00 +21°C° 0 mm 3 mps 704 mmHg 85%
    02:00 +21°C° 0 mm 3 mps 703 mmHg 85%
    03:00 +21°C° 0 mm 3 mps 703 mmHg 86%
    04:00 +20°C° 0.1 mm 2 mps 703 mmHg 87%
    05:00 +20°C° 0.1 mm 2 mps 703 mmHg 89%
    06:00 +20°C° 0.1 mm 2 mps 703 mmHg 91%
    07:00 +21°C° 0.1 mm 2 mps 703 mmHg 85%
    08:00 +24°C° 0.1 mm 2 mps 704 mmHg 80%
    09:00 +25°C° 0.1 mm 2 mps 705 mmHg 75%
    10:00 +26°C° 0.9 mm 2 mps 704 mmHg 73%
    11:00 +27°C° 0.9 mm 2 mps 704 mmHg 72%
    12:00 +28°C° 0.9 mm 2 mps 704 mmHg 70%
    13:00 +28°C° 2.3 mm 2 mps 703 mmHg 71%
    14:00 +28°C° 2.3 mm 2 mps 703 mmHg 72%
    15:00 +27°C° 2.3 mm 2 mps 702 mmHg 74%
    16:00 +27°C° 1.9 mm 2 mps 702 mmHg 77%
    17:00 +26°C° 1.9 mm 2 mps 702 mmHg 80%
    18:00 +25°C° 1.9 mm 2 mps 702 mmHg 84%
    19:00 +24°C° 0.4 mm 2 mps 702 mmHg 86%
    20:00 +24°C° 0.4 mm 2 mps 702 mmHg 88%
    21:00 +22°C° 0.4 mm 3 mps 703 mmHg 90%
    22:00 +23°C° 0 mm 2 mps 703 mmHg 90%
    23:00 +21°C° 0 mm 2 mps 702 mmHg 91%

    27 February, Tuesday

    Time Temperature Precipitation Wind Pressure Humidity
    00:00 +21°C° 0 mm 2 mps 702 mmHg 91%
    01:00 +21°C° 0 mm 2 mps 702 mmHg 91%
    02:00 +22°C° 0 mm 1 mps 702 mmHg 91%
    03:00 +22°C° 0 mm 1 mps 701 mmHg 91%
    04:00 +22°C° 0 mm 1 mps 701 mmHg 91%
    05:00 +22°C° 0 mm 1 mps 701 mmHg 91%
    06:00 +22°C° 0 mm 1 mps 702 mmHg 91%
    07:00 +23°C° 0 mm 1 mps 702 mmHg 86%
    08:00 +24°C° 0 mm 2 mps 703 mmHg 82%
    09:00 +26°C° 0 mm 2 mps 704 mmHg 78%
    10:00 +27°C° 0.6 mm 2 mps 704 mmHg 75%
    11:00 +28°C° 0.6 mm 2 mps 704 mmHg 72%
    12:00 +29°C° 0.6 mm 3 mps 703 mmHg 69%
    13:00 +28°C° 1.4 mm 2 mps 703 mmHg 70%
    14:00 +28°C° 1.4 mm 2 mps 702 mmHg 71%
    15:00 +28°C° 1.4 mm 2 mps 702 mmHg 72%
    16:00 +27°C° 2 mm 1 mps 702 mmHg 76%
    17:00 +26°C° 2 mm 1 mps 702 mmHg 80%
    18:00 +25°C° 2 mm 1 mps 702 mmHg 84%
    19:00 +25°C° 0.9 mm 1 mps 702 mmHg 85%
    20:00 +24°C° 0.9 mm 1 mps 703 mmHg 86%
    21:00 +24°C° 0.9 mm 1 mps 703 mmHg 87%
    22:00 +23°C° 0.1 mm 1 mps 703 mmHg 88%
    23:00 +23°C° 0.1 mm 1 mps 703 mmHg 89%

    28 February, Wednesday

    Time Temperature Precipitation Wind Pressure Humidity
    00:00 +23°C° 0.1 mm 1 mps 703 mmHg 90%
    01:00 +23°C° 0 mm 1 mps 702 mmHg 90%
    02:00 +23°C° 0 mm 1 mps 702 mmHg 91%
    03:00 +23°C° 0 mm 1 mps 701 mmHg 91%
    04:00 +22°C° 0 mm 1 mps 702 mmHg 91%
    05:00 +22°C° 0 mm 1 mps 702 mmHg 92%
    06:00 +22°C° 0 mm 1 mps 702 mmHg 92%
    07:00 +23°C° 0 mm 1 mps 703 mmHg 89%
    08:00 +24°C° 0 mm 1 mps 703 mmHg 85%
    09:00 +25°C° 0 mm 1 mps 704 mmHg 82%
    10:00 +27°C° 0.1 mm 1 mps 704 mmHg 75%
    11:00 +28°C° 0.1 mm 2 mps 704 mmHg 68%
    12:00 +30°C° 0.1 mm 2 mps 703 mmHg 61%
    13:00 +30°C° 0.4 mm 2 mps 703 mmHg 62%
    14:00 +30°C° 0.4 mm 1 mps 702 mmHg 62%
    15:00 +30°C° 0.4 mm 1 mps 702 mmHg 63%
    16:00 +29°C° 2 mm 1 mps 702 mmHg 69%
    17:00 +28°C° 2 mm 1 mps 702 mmHg 75%
    18:00 +26°C° 2 mm 2 mps 702 mmHg 82%
    19:00 +26°C° 1.6 mm 2 mps 702 mmHg 83%
    20:00 +25°C° 1.6 mm 2 mps 703 mmHg 85%
    21:00 +24°C° 1.6 mm 3 mps 703 mmHg 87%
    22:00 +24°C° 0.1 mm 3 mps 703 mmHg 88%
    23:00 +24°C° 0.1 mm 3 mps 703 mmHg 89%

    1 March, Thursday

    Time Temperature Precipitation Wind Pressure Humidity
    00:00 +22°C° 0.1 mm 3 mps 703 mmHg 90%
    01:00 +23°C° 0 mm 2 mps 703 mmHg 90%
    02:00 +23°C° 0 mm 2 mps 703 mmHg 90%
    03:00 +23°C° 0 mm 2 mps 702 mmHg 90%
    04:00 +23°C° 0 mm 2 mps 703 mmHg 90%
    05:00 +23°C° 0 mm 2 mps 703 mmHg 90%
    06:00 +22°C° 0 mm 1 mps 703 mmHg 90%
    07:00 +24°C° 0.1 mm 2 mps 704 mmHg 86%
    08:00 +25°C° 0.1 mm 2 mps 704 mmHg 81%
    09:00 +27°C° 0.1 mm 2 mps 705 mmHg 77%
    10:00 +28°C° 1.1 mm 2 mps 705 mmHg 74%
    11:00 +29°C° 1.1 mm 1 mps 705 mmHg 71%
    12:00 +30°C° 1.1 mm 1 mps 705 mmHg 68%
    13:00 +29°C° 2.2 mm 1 mps 704 mmHg 69%
    14:00 +29°C° 2.2 mm 1 mps 704 mmHg 70%
    15:00 +29°C° 2.2 mm 1 mps 703 mmHg 71%
    16:00 +28°C° 2.1 mm 1 mps 703 mmHg 76%
    17:00 +27°C° 2.1 mm 2 mps 703 mmHg 80%
    18:00 +26°C° 2.1 mm 3 mps 703 mmHg 85%
    19:00 +25°C° 0.4 mm 3 mps 703 mmHg 86%
    20:00 +24°C° 0.4 mm 3 mps 704 mmHg 88%
    21:00 +24°C° 0.4 mm 3 mps 704 mmHg 89%
    22:00 +24°C° 0 mm 2 mps 704 mmHg 90%
    23:00 +23°C° 0 mm 2 mps 704 mmHg 90%
    Show more